Terug naar catalogus

CZ-6A DEB

ActiefPO
NORAD 61084·DEBRIS·🇨🇳 China

Gelanceerd Aug 6, 2024 vanaf Taiyuan Satellite Launch Center

Loading…

Volgende Passages (komende 24 uur)

TLE

VersSource: Space-Track

Epoch: Sep 14, 2026, 17:42 UTC

1 61084U 24140NA  26257.73815077  .00001824  00000-0  91101-3 0  9990
2 61084  88.9874 264.8280 0085610 296.7749  62.4698 14.14591775105802

Volg CZ-6A DEB in realtime met AllMySat

Download on the App Store